Retour au catalogue

CZ-6A DEB

ActifPO
NORAD 61100·DEBRIS·🇨🇳 China

Lancé Aug 6, 2024 depuis Taiyuan Satellite Launch Center

Loading…

Prochains Passages (prochaines 24 heures)

TLE

FraisSource: Space-Track

Époque: Sep 14, 2026, 11:02 UTC

1 61100U 24140NS  26257.46015495  .00001523  00000-0  31421-3 0  9990
2 61100  89.0311 262.9684 0109553 317.5928  41.6852 14.56229321108603

Suivez CZ-6A DEB en temps réel avec AllMySat

Download on the App Store